Time,TemperatureF,DewpointF,PressureIn,WindDirection,WindDirectionDegrees,WindSpeedMPH,WindSpeedGustMPH,Humidity,HourlyPrecipIn,Conditions,Clouds,dailyrainin,SoftwareType,DateUTC
2013-12-29 00:02:00,42.6,32.0,29.93,SSW,206,1.0,8.0,67,0.00,,,0.00,weatherlink.com 1.10,2013-12-29 05:02:00,
2013-12-29 00:10:00,42.4,32.2,29.93,SSW,196,3.0,3.0,67,0.00,,,0.00,Wunderground v.1.15,2013-12-29 05:10:00,
2013-12-29 00:17:00,42.4,32.0,29.93,South,188,2.0,8.0,67,0.00,,,0.00,weatherlink.com 1.10,2013-12-29 05:17:00,
2013-12-29 00:32:00,42.4,32.0,29.93,SSE,164,3.0,11.0,67,0.00,,,0.00,weatherlink.com 1.10,2013-12-29 05:32:00,
2013-12-29 00:40:00,42.4,32.2,29.92,SSW,192,4.0,4.0,67,0.00,,,0.00,Wunderground v.1.15,2013-12-29 05:40:00,
2013-12-29 00:48:00,42.4,32.0,29.92,WSW,252,1.0,8.0,67,0.00,,,0.00,weatherlink.com 1.10,2013-12-29 05:48:00,
2013-12-29 01:02:00,42.2,32.0,29.92,SSW,196,4.0,8.0,67,0.00,,,0.00,weatherlink.com 1.10,2013-12-29 06:02:00,
2013-12-29 01:10:00,42.5,32.3,29.92,SSW,205,5.0,5.0,67,0.00,,,0.00,Wunderground v.1.15,2013-12-29 06:10:00,
2013-12-29 01:18:00,42.3,32.0,29.92,SW,215,1.0,9.0,67,0.00,,,0.00,weatherlink.com 1.10,2013-12-29 06:18:00,
2013-12-29 01:33:00,42.1,32.0,29.92,SSE,167,3.0,7.0,67,0.00,,,0.00,weatherlink.com 1.10,2013-12-29 06:33:00,
2013-12-29 01:40:00,42.0,32.2,29.92,SW,217,3.0,5.0,68,0.00,,,0.00,Wunderground v.1.15,2013-12-29 06:40:00,
2013-12-29 01:48:00,42.0,32.0,29.92,SSW,211,6.0,8.0,68,0.00,,,0.00,weatherlink.com 1.10,2013-12-29 06:48:00,
2013-12-29 02:02:00,41.8,32.0,29.92,SSW,213,5.0,7.0,68,0.00,,,0.00,weatherlink.com 1.10,2013-12-29 07:02:00,
2013-12-29 02:10:00,41.4,32.0,29.92,SW,227,4.0,4.0,69,0.00,,,0.00,Wunderground v.1.15,2013-12-29 07:10:00,
2013-12-29 02:17:00,40.8,32.0,29.92,SSW,205,2.0,8.0,70,0.00,,,0.00,weatherlink.com 1.10,2013-12-29 07:17:00,
2013-12-29 02:32:00,39.7,32.0,29.92,SW,214,4.0,8.0,73,0.00,,,0.00,weatherlink.com 1.10,2013-12-29 07:32:00,
2013-12-29 02:40:00,39.7,32.1,29.92,SSW,206,5.0,5.0,74,0.00,,,0.00,Wunderground v.1.15,2013-12-29 07:40:00,
2013-12-29 02:48:00,39.8,32.0,29.93,SW,227,6.0,8.0,74,0.00,,,0.00,weatherlink.com 1.10,2013-12-29 07:48:00,
2013-12-29 03:02:00,40.6,32.0,29.93,SSW,211,3.0,10.0,71,0.00,,,0.00,weatherlink.com 1.10,2013-12-29 08:02:00,
2013-12-29 03:10:00,41.0,32.0,29.93,South,186,5.0,5.0,70,0.00,,,0.00,Wunderground v.1.15,2013-12-29 08:10:00,
2013-12-29 03:18:00,41.5,32.0,29.92,SSW,211,6.0,11.0,69,0.00,,,0.00,weatherlink.com 1.10,2013-12-29 08:18:00,
2013-12-29 03:33:00,41.5,32.0,29.91,SSW,197,6.0,10.0,69,0.00,,,0.00,weatherlink.com 1.10,2013-12-29 08:33:00,
2013-12-29 03:40:00,41.3,32.2,29.91,SW,217,5.0,5.0,70,0.00,,,0.00,Wunderground v.1.15,2013-12-29 08:40:00,
2013-12-29 03:48:00,41.2,32.0,29.91,SW,229,7.0,9.0,69,0.00,,,0.00,weatherlink.com 1.10,2013-12-29 08:48:00,
2013-12-29 04:03:00,41.7,32.0,29.91,WSW,253,5.0,11.0,68,0.00,,,0.00,weatherlink.com 1.10,2013-12-29 09:03:00,
2013-12-29 04:10:00,41.9,31.7,29.90,NW,304,6.0,6.0,67,0.00,,,0.00,Wunderground v.1.15,2013-12-29 09:10:00,
2013-12-29 04:18:00,41.8,32.0,29.90,SSE,153,4.0,12.0,67,0.00,,,0.00,weatherlink.com 1.10,2013-12-29 09:18:00,
2013-12-29 04:33:00,41.5,32.0,29.89,South,189,5.0,11.0,68,0.00,,,0.00,weatherlink.com 1.10,2013-12-29 09:33:00,
2013-12-29 04:40:00,41.5,31.7,29.89,SW,219,5.0,7.0,68,0.00,,,0.00,Wunderground v.1.15,2013-12-29 09:40:00,
2013-12-29 04:48:00,41.6,31.0,29.88,SSW,209,5.0,9.0,67,0.00,,,0.00,weatherlink.com 1.10,2013-12-29 09:48:00,
2013-12-29 05:03:00,41.6,32.0,29.87,SSW,211,7.0,8.0,68,0.00,,,0.00,weatherlink.com 1.10,2013-12-29 10:03:00,
2013-12-29 05:10:00,41.5,31.7,29.87,SSW,198,5.0,5.0,68,0.00,,,0.00,Wunderground v.1.15,2013-12-29 10:10:00,
2013-12-29 05:18:00,41.7,31.0,29.87,SSW,211,5.0,7.0,67,0.00,,,0.00,weatherlink.com 1.10,2013-12-29 10:18:00,
2013-12-29 05:33:00,42.1,31.0,29.86,SSW,213,3.0,8.0,65,0.00,,,0.00,weatherlink.com 1.10,2013-12-29 10:33:00,
2013-12-29 05:40:00,41.9,31.4,29.86,SW,218,3.0,4.0,66,0.00,,,0.00,Wunderground v.1.15,2013-12-29 10:40:00,
2013-12-29 05:49:00,41.9,31.0,29.85,South,177,1.0,9.0,65,0.00,,,0.00,weatherlink.com 1.10,2013-12-29 10:49:00,
2013-12-29 06:03:00,41.7,31.0,29.86,SSW,206,5.0,6.0,66,0.00,,,0.00,weatherlink.com 1.10,2013-12-29 11:03:00,
2013-12-29 06:10:00,41.7,30.8,29.86,South,173,3.0,7.0,65,0.00,,,0.00,Wunderground v.1.15,2013-12-29 11:10:00,
2013-12-29 06:19:00,41.6,31.0,29.85,SW,219,3.0,7.0,66,0.00,,,0.00,weatherlink.com 1.10,2013-12-29 11:19:00,
2013-12-29 06:34:00,41.4,31.0,29.85,South,186,7.0,9.0,66,0.00,,,0.00,weatherlink.com 1.10,2013-12-29 11:34:00,
2013-12-29 06:40:00,41.4,31.3,29.85,South,175,4.0,4.0,67,0.00,,,0.00,Wunderground v.1.15,2013-12-29 11:40:00,
2013-12-29 06:49:00,41.6,31.0,29.86,SSW,209,5.0,9.0,66,0.00,,,0.00,weatherlink.com 1.10,2013-12-29 11:49:00,
2013-12-29 07:03:00,41.9,30.0,29.86,SW,223,2.0,9.0,64,0.00,,,0.00,weatherlink.com 1.10,2013-12-29 12:03:00,
2013-12-29 07:10:00,42.0,30.7,29.86,SSW,213,4.0,6.0,64,0.00,,,0.00,Wunderground v.1.15,2013-12-29 12:10:00,
2013-12-29 07:19:00,42.0,31.0,29.86,SSE,159,4.0,9.0,64,0.00,,,0.00,weatherlink.com 1.10,2013-12-29 12:19:00,
2013-12-29 07:34:00,42.2,30.0,29.85,SSW,213,4.0,12.0,63,0.00,,,0.00,weatherlink.com 1.10,2013-12-29 12:34:00,
2013-12-29 07:40:00,42.2,30.5,29.84,SSW,200,5.0,5.0,63,0.00,,,0.00,Wunderground v.1.15,2013-12-29 12:40:00,
2013-12-29 07:49:00,42.4,30.0,29.84,SSE,151,5.0,10.0,62,0.00,,,0.00,weatherlink.com 1.10,2013-12-29 12:49:00,
2013-12-29 08:03:00,42.6,30.0,29.83,SSW,201,0.0,10.0,61,0.00,,,0.00,weatherlink.com 1.10,2013-12-29 13:03:00,
2013-12-29 08:10:00,42.8,30.3,29.82,South,190,4.0,5.0,61,0.00,,,0.00,Wunderground v.1.15,2013-12-29 13:10:00,
2013-12-29 08:19:00,42.9,30.0,29.82,SSW,195,4.0,11.0,60,0.00,,,0.00,weatherlink.com 1.10,2013-12-29 13:19:00,
2013-12-29 08:34:00,43.0,29.0,29.81,SSW,201,4.0,7.0,59,0.00,,,0.00,weatherlink.com 1.10,2013-12-29 13:34:00,
2013-12-29 08:40:00,43.0,29.6,29.81,SSW,213,3.0,4.0,59,0.00,,,0.00,Wunderground v.1.15,2013-12-29 13:40:00,
2013-12-29 08:49:00,43.0,30.0,29.80,SW,234,3.0,6.0,60,0.00,,,0.00,weatherlink.com 1.10,2013-12-29 13:49:00,
2013-12-29 09:03:00,42.2,30.0,29.82,South,182,2.0,6.0,63,0.00,,,0.00,weatherlink.com 1.10,2013-12-29 14:03:00,
2013-12-29 09:10:00,42.4,30.3,29.82,SW,215,3.0,3.0,62,0.00,,,0.00,Wunderground v.1.15,2013-12-29 14:10:00,
2013-12-29 09:19:00,42.9,30.0,29.83,SW,225,4.0,8.0,60,0.00,,,0.00,weatherlink.com 1.10,2013-12-29 14:19:00,
2013-12-29 09:34:00,43.1,30.0,29.83,SW,227,5.0,8.0,60,0.00,,,0.00,weatherlink.com 1.10,2013-12-29 14:34:00,
2013-12-29 09:40:00,43.3,30.3,29.83,SSE,167,4.0,4.0,60,0.00,,,0.00,Wunderground v.1.15,2013-12-29 14:40:00,
2013-12-29 09:49:00,43.4,30.0,29.84,WSW,252,4.0,13.0,60,0.00,,,0.00,weatherlink.com 1.10,2013-12-29 14:49:00,
2013-12-29 10:04:00,43.4,31.0,29.82,WSW,249,4.0,10.0,61,0.00,,,0.00,weatherlink.com 1.10,2013-12-29 15:04:00,
2013-12-29 10:10:00,43.4,30.4,29.81,South,180,5.0,5.0,60,0.00,,,0.00,Wunderground v.1.15,2013-12-29 15:10:00,
2013-12-29 10:19:00,43.7,30.0,29.80,SSW,194,8.0,11.0,60,0.00,,,0.00,weatherlink.com 1.10,2013-12-29 15:19:00,
2013-12-29 10:34:00,44.2,30.0,29.79,South,186,3.0,8.0,58,0.00,,,0.00,weatherlink.com 1.10,2013-12-29 15:34:00,
2013-12-29 10:40:00,44.5,30.2,29.79,WSW,237,5.0,7.0,57,0.00,,,0.00,Wunderground v.1.15,2013-12-29 15:40:00,
2013-12-29 10:49:00,44.9,30.0,29.79,WSW,249,0.0,11.0,56,0.00,,,0.00,weatherlink.com 1.10,2013-12-29 15:49:00,
2013-12-29 11:04:00,44.6,30.0,29.77,SW,215,0.0,8.0,58,0.00,,,0.00,weatherlink.com 1.10,2013-12-29 16:04:00,
2013-12-29 11:10:00,44.4,30.5,29.77,SSW,193,3.0,4.0,58,0.00,,,0.00,Wunderground v.1.15,2013-12-29 16:10:00,
2013-12-29 11:19:00,44.0,31.0,29.76,SSW,210,0.0,5.0,61,0.00,,,0.00,weatherlink.com 1.10,2013-12-29 16:19:00,
2013-12-29 11:34:00,43.3,31.0,29.74,SW,218,2.0,5.0,63,0.00,,,0.00,weatherlink.com 1.10,2013-12-29 16:34:00,
2013-12-29 11:40:00,43.3,31.9,29.74,South,189,2.0,3.0,64,0.00,,,0.00,Wunderground v.1.15,2013-12-29 16:40:00,
2013-12-29 11:49:00,43.8,33.0,29.73,South,185,5.0,11.0,66,0.00,,,0.00,weatherlink.com 1.10,2013-12-29 16:49:00,
2013-12-29 12:04:00,45.4,37.0,29.73,SSW,196,8.0,17.0,72,0.00,,,0.00,weatherlink.com 1.10,2013-12-29 17:04:00,
2013-12-29 12:10:00,45.0,37.9,29.73,SSW,210,9.0,9.0,76,0.00,,,0.00,Wunderground v.1.15,2013-12-29 17:10:00,
2013-12-29 12:19:00,43.9,38.0,29.72,SSW,205,5.0,13.0,81,0.02,,,0.02,weatherlink.com 1.10,2013-12-29 17:19:00,
2013-12-29 12:34:00,42.9,39.0,29.71,SSW,204,7.0,9.0,85,0.04,,,0.04,weatherlink.com 1.10,2013-12-29 17:34:00,
2013-12-29 12:40:00,42.6,38.7,29.70,South,184,5.0,5.0,86,0.05,,,0.04,Wunderground v.1.15,2013-12-29 17:40:00,
2013-12-29 12:50:00,42.3,39.0,29.70,SW,223,4.0,10.0,87,0.04,,,0.04,weatherlink.com 1.10,2013-12-29 17:50:00,
2013-12-29 13:04:00,41.9,39.0,29.69,SW,224,6.0,10.0,89,0.06,,,0.06,weatherlink.com 1.10,2013-12-29 18:04:00,
2013-12-29 13:10:00,41.7,39.0,29.68,SSW,193,5.0,6.0,90,0.05,,,0.06,Wunderground v.1.15,2013-12-29 18:10:00,
2013-12-29 13:20:00,41.5,39.0,29.68,SSW,199,1.0,7.0,90,0.06,,,0.08,weatherlink.com 1.10,2013-12-29 18:20:00,
2013-12-29 13:35:00,41.2,39.0,29.68,SSW,208,4.0,8.0,91,0.05,,,0.09,weatherlink.com 1.10,2013-12-29 18:35:00,
2013-12-29 13:50:00,40.9,39.0,29.67,South,178,3.0,7.0,91,0.06,,,0.10,weatherlink.com 1.10,2013-12-29 18:50:00,
2013-12-29 14:04:00,40.7,39.0,29.67,SSW,195,5.0,6.0,92,0.05,,,0.11,weatherlink.com 1.10,2013-12-29 19:04:00,
2013-12-29 14:10:00,40.6,38.5,29.67,SSE,148,3.0,4.0,92,0.06,,,0.12,Wunderground v.1.15,2013-12-29 19:10:00,
2013-12-29 14:20:00,40.5,38.0,29.66,SW,226,3.0,7.0,92,0.05,,,0.13,weatherlink.com 1.10,2013-12-29 19:20:00,
2013-12-29 14:35:00,40.3,38.0,29.66,SSW,209,3.0,9.0,92,0.06,,,0.15,weatherlink.com 1.10,2013-12-29 19:35:00,
2013-12-29 14:50:00,40.2,38.0,29.65,SSW,213,4.0,8.0,92,0.06,,,0.16,weatherlink.com 1.10,2013-12-29 19:50:00,
2013-12-29 15:05:00,40.0,38.0,29.65,West,265,2.0,9.0,93,0.06,,,0.17,weatherlink.com 1.10,2013-12-29 20:05:00,
2013-12-29 15:20:00,39.8,38.0,29.66,WSW,240,0.0,6.0,94,0.06,,,0.19,weatherlink.com 1.10,2013-12-29 20:20:00,
2013-12-29 15:35:00,39.7,38.0,29.65,SW,216,5.0,6.0,94,0.05,,,0.20,weatherlink.com 1.10,2013-12-29 20:35:00,
2013-12-29 15:50:00,39.7,38.0,29.65,SW,226,3.0,6.0,94,0.06,,,0.22,weatherlink.com 1.10,2013-12-29 20:50:00,
2013-12-29 16:05:00,39.6,38.0,29.64,South,188,4.0,5.0,94,0.05,,,0.22,weatherlink.com 1.10,2013-12-29 21:05:00,
2013-12-29 16:20:00,39.4,38.0,29.64,SW,225,6.0,7.0,94,0.04,,,0.23,weatherlink.com 1.10,2013-12-29 21:20:00,
2013-12-29 16:35:00,39.2,38.0,29.63,WSW,253,5.0,7.0,94,0.03,,,0.23,weatherlink.com 1.10,2013-12-29 21:35:00,
2013-12-29 16:50:00,39.2,38.0,29.62,SW,215,8.0,12.0,94,0.01,,,0.23,weatherlink.com 1.10,2013-12-29 21:50:00,
2013-12-29 17:05:00,39.2,37.0,29.62,SW,221,1.0,11.0,93,0.01,,,0.23,weatherlink.com 1.10,2013-12-29 22:05:00,
2013-12-29 17:21:00,39.1,38.0,29.62,SSW,209,5.0,7.0,94,0.00,,,0.23,weatherlink.com 1.10,2013-12-29 22:21:00,
2013-12-29 17:36:00,39.0,38.0,29.62,SSW,195,2.0,7.0,94,0.00,,,0.23,weatherlink.com 1.10,2013-12-29 22:36:00,
2013-12-29 17:51:00,38.9,37.0,29.63,SSW,197,1.0,7.0,94,0.00,,,0.23,weatherlink.com 1.10,2013-12-29 22:51:00,
2013-12-29 18:05:00,39.1,38.0,29.63,SSW,196,4.0,6.0,94,0.00,,,0.23,weatherlink.com 1.10,2013-12-29 23:05:00,
2013-12-29 18:21:00,39.2,37.0,29.63,WSW,244,3.0,5.0,93,0.00,,,0.23,weatherlink.com 1.10,2013-12-29 23:21:00,
2013-12-29 18:36:00,39.2,37.0,29.63,South,180,3.0,6.0,93,0.00,,,0.23,weatherlink.com 1.10,2013-12-29 23:36:00,
2013-12-29 18:51:00,39.3,37.0,29.62,South,187,0.0,5.0,92,0.00,,,0.23,weatherlink.com 1.10,2013-12-29 23:51:00,
2013-12-29 19:06:00,39.3,37.0,29.63,South,186,0.0,4.0,92,0.00,,,0.23,weatherlink.com 1.10,2013-12-30 00:06:00,
2013-12-29 19:21:00,39.1,37.0,29.63,SSW,202,1.0,5.0,91,0.00,,,0.23,weatherlink.com 1.10,2013-12-30 00:21:00,
2013-12-29 19:36:00,38.5,36.0,29.64,West,273,3.0,4.0,92,0.00,,,0.23,weatherlink.com 1.10,2013-12-30 00:36:00,
2013-12-29 19:51:00,38.1,36.0,29.65,WNW,283,2.0,8.0,92,0.00,,,0.23,weatherlink.com 1.10,2013-12-30 00:51:00,
2013-12-29 20:05:00,38.8,36.0,29.66,SW,233,8.0,12.0,91,0.00,,,0.23,weatherlink.com 1.10,2013-12-30 01:05:00,
2013-12-29 20:21:00,38.8,36.0,29.66,WNW,289,4.0,10.0,88,0.00,,,0.23,weatherlink.com 1.10,2013-12-30 01:21:00,
2013-12-29 20:36:00,38.4,35.0,29.67,WSW,245,6.0,11.0,87,0.00,,,0.23,weatherlink.com 1.10,2013-12-30 01:36:00,
2013-12-29 20:51:00,37.9,34.0,29.67,WSW,254,8.0,14.0,85,0.00,,,0.23,weatherlink.com 1.10,2013-12-30 01:51:00,
2013-12-29 21:06:00,37.1,33.0,29.68,SW,232,7.0,14.0,85,0.00,,,0.23,weatherlink.com 1.10,2013-12-30 02:06:00,
2013-12-29 21:21:00,37.0,33.0,29.69,West,263,6.0,15.0,85,0.00,,,0.23,weatherlink.com 1.10,2013-12-30 02:21:00,
2013-12-29 21:36:00,36.7,33.0,29.68,SW,224,7.0,15.0,86,0.00,,,0.23,weatherlink.com 1.10,2013-12-30 02:36:00,
2013-12-29 21:51:00,36.6,33.0,29.68,WSW,244,8.0,12.0,86,0.00,,,0.23,weatherlink.com 1.10,2013-12-30 02:51:00,
2013-12-29 22:06:00,36.7,33.0,29.68,West,279,2.0,8.0,86,0.00,,,0.23,weatherlink.com 1.10,2013-12-30 03:06:00,
2013-12-29 22:21:00,36.9,33.0,29.69,SW,232,5.0,11.0,85,0.00,,,0.23,weatherlink.com 1.10,2013-12-30 03:21:00,
2013-12-29 22:36:00,37.1,33.0,29.69,WSW,258,5.0,11.0,85,0.00,,,0.23,weatherlink.com 1.10,2013-12-30 03:36:00,
2013-12-29 22:51:00,37.2,33.0,29.69,WSW,239,12.0,16.0,84,0.00,,,0.23,weatherlink.com 1.10,2013-12-30 03:51:00,
2013-12-29 23:06:00,37.0,33.0,29.70,WSW,242,9.0,15.0,85,0.00,,,0.23,weatherlink.com 1.10,2013-12-30 04:06:00,
2013-12-29 23:21:00,35.9,32.0,29.71,NNW,337,9.0,20.0,84,0.00,,,0.23,weatherlink.com 1.10,2013-12-30 04:21:00,
2013-12-29 23:36:00,31.3,29.0,29.73,West,273,15.0,22.0,89,0.00,,,0.23,weatherlink.com 1.10,2013-12-30 04:36:00,
2013-12-29 23:51:00,30.1,28.0,29.74,WNW,294,8.0,18.0,92,0.00,,,0.23,weatherlink.com 1.10,2013-12-30 04:51:00,